Regional Weather Roundup
Issued by NWS

Home | Current Version | Previous Version | Text Only | Print | Product List | Glossary Off
Versions: 1 2 3 4 5 6 7 8 9 10 11 12 13 14 15 16 17 18 19 20 21 22 23 24 25 26 27 28 29 30 31 32 33 34 35 36 37 38 39 40 41 42 43 44 45 46 47 48 49 50

000
ASUS43 KBIS 231902
RWRND

NORTH DAKOTA REGIONAL WEATHER ROUNDUP
NATIONAL WEATHER SERVICE BISMARCK ND
200 PM CDT SUN APR 23 2017

NOTE: "FAIR" INDICATES FEW OR NO CLOUDS BELOW 12,000 FEET WITH NO
SIGNIFICANT WEATHER AND/OR OBSTRUCTIONS TO VISIBILITY.


NDZ001>003-009>011-017-232000-
NORTHWEST NORTH DAKOTA

CITY           SKY/WX    TMP DP  RH WIND       PRES   REMARKS
WILLISTON      CLOUDY    32  26  78 E18       29.98F
MINOT          FLURRIES  32  28  85 E14       30.05S
MINOT AFB      CLOUDY    31  29  92 E17       30.04F WCI  19
$$

NDZ018>021-031>035-040>046-232000-
SOUTHWEST NORTH DAKOTA

CITY           SKY/WX    TMP DP  RH WIND       PRES   REMARKS
BISMARCK       CLOUDY    40  33  76 E21G30    29.94F
DICKINSON      CLOUDY    34  30  85 E15       29.87F
GARRISON         N/A     30  27  88 E18       29.99S WCI  18
HETTINGER ARPT CLOUDY    40  34  79 E13       29.85F
$$

NDZ004>008-012>016-024-026-027-054-232000-
NORTHEAST NORTH DAKOTA

CITY           SKY/WX    TMP DP  RH WIND       PRES   REMARKS
GRAND FORKS    LGT SNOW  33  25  72 E14       30.15F
GRND FRKS AFB  LGT SNOW  30  25  80 E14       30.15F VSB 3/4 WCI  20
DEVILS LAKE    SNOW      28  26  92 E20       30.10F VSB 1/2 WCI  15
$$

NDZ022-023-025-028>030-036>039-047>053-232000-
SOUTHEAST NORTH DAKOTA

CITY           SKY/WX    TMP DP  RH WIND       PRES   REMARKS
FARGO          CLOUDY    41  33  73 NE17      30.05F
JAMESTOWN      CLOUDY    36  30  79 E23G32    29.98F
$$





USA.gov is the U.S. government's official web portal to all federal, state and local government web resources and services.